Weather History for KMMK - January, 2013

Change the Weather History Date:

Friday, January 4, 2013

  Actual Average (KHVN) Record (KHVN)
Temperature  
Mean Temperature 24 °F -  
Max Temperature 37 °F 37 °F 60 °F (1998)
Min Temperature 12 °F 26 °F -1 °F (1981)
Degree Days  
Heating Degree Days 40    
Moisture  
Dew Point 17 °F    
Average Humidity 67    
Maximum Humidity 92    
Minimum Humidity 50    
Precipitation  
Precipitation 0.00 in - - ()
Sea Level Pressure  
Sea Level Pressure 29.97 in    
Wind  
Wind Speed 3 mph (SW)    
Max Wind Speed 10 mph    
Max Gust Speed 17 mph    
Visibility 9 miles    
Events      
Averages and records for this station are not official NWS values.
T = Trace of Precipitation, MM = Missing Value Source: NWS Daily Summary

Daily Weather History Graph

Daily Weather History Graph

Search for Another Location

Airport or City:

Trip Planner

Search our weather history database for the weather conditions in past years. The results will help you decide how hot, cold, wet, or windy it might be!

Date:

Astronomy

Jan. 04, 2013 Rise Set
Actual Time 7:17 AM EST 4:35 PM EST
Civil Twilight 6:46 AM EST 5:06 PM EST
Nautical Twilight 6:12 AM EST 5:40 PM EST
Astronomical Twilight 5:38 AM EST 6:14 PM EST
Moon No Moon Rise 10:53 AM EST
Length of Visible Light 10h 19m
Length of Day
9h 17m
Waning Gibbous, 55% of the Moon is Illuminated
Jan 4
Waning Gibbous
Jan 4
Last Quarter
Jan 11
New
Jan 18
First Quarter
Jan 26
Full

Hourly Weather History & Observations

Time (EST) Temp. Windchill Dew Point Humidity Pressure Visibility Wind Dir Wind Speed Gust Speed Precip Events Conditions
12:53 AM 15.1 °F - 12.0 °F 88% 30.02 in 7.0 mi Calm Calm - N/A   Clear
1:53 AM 17.1 °F - 12.0 °F 81% 30.02 in 8.0 mi Calm Calm - N/A   Scattered Clouds
3:53 AM 15.1 °F - 10.9 °F 84% 30.01 in 7.0 mi Calm Calm - N/A   Clear
4:53 AM 14.0 °F - 10.9 °F 88% 30.01 in 8.0 mi Calm Calm - N/A   Clear
5:53 AM 14.0 °F - 10.9 °F 88% 30.02 in 6.0 mi Calm Calm - N/A   Clear
6:53 AM 12.9 °F 6.9 °F 10.0 °F 88% 30.03 in 7.0 mi SSE 3.5 mph - N/A   Clear
7:53 AM 14.0 °F - 12.0 °F 92% 30.05 in 5.0 mi Calm Calm - N/A   Clear
8:53 AM 19.0 °F - 16.0 °F 88% 30.05 in 7.0 mi Calm Calm - N/A   Overcast
9:53 AM 28.9 °F 23.9 °F 21.9 °F 75% 30.03 in 10.0 mi SSE 4.6 mph - N/A   Overcast
10:53 AM 33.1 °F 26.1 °F 21.9 °F 64% 30.01 in 10.0 mi SSW 8.1 mph - N/A   Overcast
11:53 AM 35.1 °F 28.6 °F 21.0 °F 57% 29.97 in 10.0 mi SW 8.1 mph - N/A   Overcast
12:53 PM 36.0 °F 29.6 °F 19.9 °F 52% 29.93 in 10.0 mi WSW 8.1 mph 17.3 mph N/A   Partly Cloudy
1:53 PM 37.0 °F 33.3 °F 21.0 °F 52% 29.91 in 10.0 mi Variable 4.6 mph - N/A   Clear
2:53 PM 37.0 °F 29.8 °F 19.9 °F 50% 29.91 in 10.0 mi SW 10.4 mph 17.3 mph N/A   Clear
3:53 PM 37.0 °F 32.4 °F 19.9 °F 50% 29.91 in 10.0 mi WSW 5.8 mph - N/A   Clear
4:53 PM 35.1 °F 31.0 °F 19.9 °F 54% 29.90 in 10.0 mi SW 4.6 mph - N/A   Clear
5:53 PM 34.0 °F 28.8 °F 19.0 °F 54% 29.91 in 10.0 mi SW 5.8 mph - N/A   Clear
6:53 PM 35.1 °F 30.1 °F 19.0 °F 52% 29.93 in 10.0 mi SSW 5.8 mph - N/A   Clear
7:53 PM 32.0 °F 26.4 °F 18.0 °F 56% 29.94 in 10.0 mi Variable 5.8 mph - N/A   Clear
8:53 PM 32.0 °F 26.4 °F 18.0 °F 56% 29.93 in 10.0 mi SSW 5.8 mph - N/A   Clear
9:53 PM 33.1 °F 28.7 °F 18.0 °F 54% 29.93 in 10.0 mi SW 4.6 mph - N/A   Clear
10:53 PM 30.9 °F 23.5 °F 17.1 °F 57% 29.94 in 10.0 mi West 8.1 mph - N/A   Clear
11:53 PM 32.0 °F 26.4 °F 17.1 °F 54% 29.94 in 10.0 mi West 5.8 mph - N/A   Clear